Regional Weather Roundup
Issued by NWS Charleston, SC

Current Version | Previous Version | Text Only | Print | Product List | Glossary Off
Versions: 1 2 3 4 5 6 7 8 9 10 11 12 13 14 15 16 17 18 19 20 21 22 23 24 25 26 27 28 29 30 31 32 33 34 35 36 37 38 39 40 41 42 43 44 45 46 47 48 49 50
000 ASUS42 KCHS 250412 RWRCHS REGIONAL WEATHER ROUNDUP NATIONAL WEATHER SERVICE CHARLESTON SC 1200 AM EDT TUE APR 25 2017 NOTE: "FAIR" INDICATES FEW OR NO CLOUDS BELOW 12,000 FEET WITH NO SIGNIFICANT WEATHER AND/OR OBSTRUCTIONS TO VISIBILITY. NOT ALL STATIONS ARE QUALITY CONTROLLED. USE DATA WITH CAUTION... ESPECIALLY DEWPOINT OBSERVATIONS. SCZ027-030-031-034>040-042>050-250500- ...SOUTHEAST SOUTH CAROLINA... CITY SKY/WX TMP DP RH WIND PRES REMARKS N CHARLESTON PTCLDY 59 56 89 W3 29.63F WATERFRONT PRK N/A 64 61 90 VRB3 29.63S JOHNS ISLAND FAIR 63 61 94 NW3 29.64S PINOPOLIS N/A N/A N/A N/A W8 29.53F MONCKS CORNER MOCLDY 57 55 94 SW6 29.63S SUMMERVILLE FAIR 57 55 94 CALM 29.64F BEAUFORT MCAS CLOUDY 63 59 87 NW13 29.65F BEAUFORT ARPT MOCLDY 63 57 82 W12 29.65F HILTON HEAD IS PTCLDY 63 57 82 W7 29.66S WALTERBORO CLOUDY 59 59 100 W7 29.65F ALLENDALE CLOUDY 59 59 100 VRB7 29.66S ...SOUTHERN MIDLANDS AND PEE DEE... CITY SKY/WX TMP DP RH WIND PRES REMARKS GEORGETOWN FAIR 63 63 100 CALM 29.62F KINGSTREE CLOUDY 59 55 88 N3 29.64R ORANGEBURG LGT RAIN 60 58 92 NW7 29.66S BARNWELL CLOUDY 59 59 100 NW7 29.68S FOG AIKEN CLOUDY 54 54 100 NW7 29.72F MANNING HVY RAIN 59 57 94 MISG 29.64S COLUMBIA CLOUDY 59 55 87 N9 29.68R SUMTER LGT RAIN 57 56 94 NW10 29.63F FLORENCE CLOUDY 58 58 100 N6 29.64F FOG MYRTLE BEACH CLOUDY 64 63 96 NW3 29.63S N MYRTLE BEACH PTCLDY 63 62 97 NW5 29.62S $$ GAZ063-065-086>088-099>101-113>116-118-119-134>141-150-250500- ...SOUTHEAST GEORGIA... CITY SKY/WX TMP DP RH WIND PRES REMARKS SAVANNAH ARPT CLOUDY 62 55 77 W10 29.69R HUNTER AAF MOCLDY 62 60 92 W9 29.66R FORT STEWART CLOUDY 61 55 82 W8 29.68R STATESBORO CLOUDY 60 60 100 NW7 29.70S SYLVANIA CLOUDY N/A N/A N/A NW8 29.69F CLAXTON CLOUDY N/A N/A N/A W5 29.70S ...CSRA...CENTRAL AND FAR SOUTHEAST GEORGIA... CITY SKY/WX TMP DP RH WIND PRES REMARKS THOMSON LGT RAIN 56 54 93 E8 29.77F AUGUSTA-BUSH CLOUDY 59 56 89 NW12 29.70F AUGUSTA-DANIEL CLOUDY 57 53 86 NW9 29.71F SWAINSBORO CLOUDY 59 59 100 NW3 29.72S VIDALIA CLOUDY 61 57 88 NW6 29.73R EASTMAN MOCLDY 56 56 100 CALM 29.76S HAZLEHURST CLOUDY 59 59 100 CALM 29.73R ALMA CLEAR 58 55 90 W3 29.73S WAYCROSS CLOUDY 62 60 93 W5 29.74R JESUP MOCLDY 61 54 77 W6 29.72R BAXLEY FAIR 59 59 100 W3 29.73R BRUNSWICK PTCLDY 61 55 82 W9 29.72R SAINT SIMONS LGT RAIN 62 54 74 W9 29.71R $$ SCZ027-028-034-036>038-045-046-048>050-GAZ119-141-250500- ...LAKE AND SUPPLEMENTAL COASTAL OBSERVATIONS... STATION/POSITION TIME TEMP WIND PRES WAVE SWELL AIR SEA DIR/SP/G HT/PER HT/PER/DIR (UTC) (F) (DEG/KT/KT) (MB) (FT/S) (FT/S/D) WINYAH BAY 0245 67 90/ 9 1003.0 LAKE MURRAY 0320 57 340/ 3/ 7 1005.1 ACE BASIN NERRS 0245 63 240/ 3 1004.0 FORT PULASKI 0348 75 300/ 14/ 17 1005.0R SAPELO ISLAND 0300 64 270/ 8 1006.0 $$ ANZ835-935-AMZ111-154-330-350-352-354-370-450-454-472-250500- ...C-MAN AND BUOY OBSERVATIONS... STATION/POSITION TIME TEMP WIND PRES WAVE SWELL AIR SEA DIR/SP/G HT/PER HT/PER/DIR (UTC) (F) (DEG/KT/KT) (MB) (FT/S) (FT/S/D) BUOY 41004 0350 71 72 250/ 14/ 17 1003.0S 7/ 8 5/150/ 8 BUOY 41008 0250 67 71 280/ 16/ 19 1004.9 4/ 9 3/ 90/ 9 FOLLY BEACH CMAN 0300 65 270/ 6/ 10 1004.0S CAPERS NEARSHORE 0308 71 72 290/ 14/ 19 1003.0R FRIPP NEARSHORE 0308 66 72 310/ 16/ 19 1004.3R STATION/POSITION TIME TEMP WIND PRES WAVE SWELL AIR SEA DIR/SP/G HT/PER HT/PER/DIR (UTC) (F) (DEG/KT/KT) (MB) (FT/S) (FT/S/D) 5E ST. MARYS GA 0330 72 N/A 3/12 2/100/12 FRYING PAN BUOY 0350 71 74 140/ 8/ 12 1002.9F 9/ 9 8/140/ 9 BUOY 41025 0350 73 78 110/ 31/ 39 1004.5F 14/ 9 3/ 50/16 CAPE LOOKOUT NC 0300 71 120/ 27/ 30 1003.7F BUOY 41002 0250 74 75 210/ 17/ 21 1003.3 11/10 8/130/10 BUOY 41010 0350 77 77 280/ 16/ 21 1005.9R 6/ 8 5/110/ 8 ST AUGUSTINE FL 0400 62 73 270/ 7/ 9 1008.2R $$

USA.gov is the U.S. government's official web portal to all federal, state and local government web resources and services.